Volver al catálogo

BREEZE-M DEB

LostHEO
NORAD 38570·DEBRIS·🇷🇺 Russia

Lanzado Mar 14, 2008 desde Baikonur Cosmodrome

Loading…

Próximos Pases (próximas 24 horas)

TLE

ObsoletoSource: Space-Track

Época: Mar 21, 2014, 04:15 UTC

1 38570U 08011R   14080.17765946 +.00001395 +00000-0 +16122-1 0  9992
2 38570 048.6827 125.0716 6526371 304.8975 010.0934 03.01444017027479

Sigue BREEZE-M DEB en tiempo real con AllMySat

Download on the App Store